Regional Weather Roundup
Issued by NWS

Home | Current Version | Previous Version | Text Only | Print | Product List | Glossary Off
Versions: 1 2 3 4 5 6 7 8 9 10 11 12 13 14 15 16 17 18 19 20 21 22 23 24 25 26 27 28 29 30 31 32 33 34 35 36 37 38 39 40 41 42 43 44 45 46 47 48 49 50

000
ASUS43 KIND 041409
RWRIN

WEATHER ROUNDUP FOR INDIANA
NATIONAL WEATHER SERVICE INDIANAPOLIS IN
1000 AM EDT FRI SEP 04 2015

NOTE: "FAIR" INDICATES FEW OR NO CLOUDS BELOW 12,000 FEET WITH NO
SIGNIFICANT WEATHER AND/OR OBSTRUCTIONS TO VISIBILITY.

* - STATION DOES NOT REPORT WEATHER SUCH AS PRECIPITATION OR FOG.

+ - STATION NOT QUALITY CONTROLLED BY THE NATIONAL WEATHER SERVICE.
    USE DATA WITH CAUTION...ESPECIALLY DEWPOINT AND RELATIVE
    HUMIDITY OBSERVATIONS.

INZ001>003-010>013-019-020-041500-
NORTHWEST INDIANA

CITY           SKY/WX    TMP DP  RH WIND       PRES   REMARKS
GARY /AIRPORT/ PTSUNNY   75  68  78 CALM      30.03R
KNOX *+        CLOUDY    70  70 100 CALM      30.02S
LA PORTE +     PTSUNNY   73  73 100 CALM      30.03F
MICHIGAN CITY+ CLOUDY    72  72 100 CALM      30.03S
MONTICELLO +   PTSUNNY   74  71  90 CALM      30.01F
RENSSELAER +   PTSUNNY   73  70  88 E3        30.03S
VALPARAISO     SUNNY     74  68  81 E5        30.03S

$$

LMZ046-743>745-041500-
SOUTHERN LAKE MICHIGAN

STATION/POSITION TIME  TEMP    WIND        PRES    WAVE
                       AIR SEA DIR/SP/G            HT
                 (UTC) (F)     (DEG/KT/KT) (MB)    (FT)
BURNS HARBOR     1300   72      20/  3/  3 1016.9
MICHIGAN CITY    1300   71     360/  1/  1   N/A
5NW MICH CITY    1400   73 73   CALM  /  2   N/A     1

$$

INZ004-005-014>016-021>024-041500-
NORTH CENTRAL INDIANA

CITY           SKY/WX    TMP DP  RH WIND       PRES   REMARKS
ELKHART        CLOUDY    70  66  88 CALM      30.03R
GOSHEN         CLOUDY    71  66  84 CALM      30.02R
LOGANSPORT +   PTSUNNY   73  66  78 CALM      30.03S HAZE
PERU/GRISSOM   MOSUNNY   76  69  80 W2        30.02S HAZE
ROCHESTER +    MOSUNNY   77  70  78 N3        30.03S
SOUTH BEND     CLOUDY    70  66  87 CALM      30.03R
WARSAW +       MOSUNNY   72  68  88 NW3       30.03S

$$

INZ006>009-017-018-025>027-041500-
NORTHEAST INDIANA

CITY           SKY/WX    TMP DP  RH WIND       PRES   REMARKS
ANGOLA *+      CLOUDY    72  64  78 N3        30.02S
AUBURN +       MOSUNNY   75  68  78 W3        30.02S
FORT WAYNE     PTSUNNY   76  70  82 SW6       30.02S
HUNTINGTON +   MOSUNNY   75  66  74 SW3       30.02S

$$

INZ028-029-035-036-043>045-051>053-041500-
WEST CENTRAL INDIANA

CITY           SKY/WX    TMP DP  RH WIND       PRES   REMARKS
CRAWFORDSVL +  PTSUNNY   76  66  71 CALM      30.04S
GREENCASTLE +  MOSUNNY   79  66  65 CALM      30.05S
LAFAYETTE      SUNNY     76  69  79 CALM      30.02R
TERRE HAUTE    PTSUNNY   79  69  71 W3        30.04S

$$

INZ030>032-037>040-046>048-054>057-064-065-041500-
CENTRAL INDIANA

CITY           SKY/WX    TMP DP  RH WIND       PRES   REMARKS
ANDERSON       SUNNY     77  64  65 CALM      30.05S
FISHERS *+     MOSUNNY   77  72  83 CALM      30.04S
FRANKFORT +    SUNNY     78  78  98 S5        30.05R
GREENWOOD *+   PTSUNNY   79  66  65 CALM      30.05R
INDIANAPOLIS   PTSUNNY   78  67  68 W6        30.04R
-EAGLE CREEK   PTSUNNY   78  68  71 W3        30.04R
KOKOMO *+      SUNNY     79  68  69 CALM      30.03S
MARION +       SUNNY     75  63  64 W5        30.04S
MT COMFORT *+  SUNNY     79  68  69 W3        30.04S
SHELBYVILLE    MOSUNNY   80  69  69 SW7       30.04R
ZIONSVILLE +   SUNNY     79  69  70 SW5       30.05S

$$

INZ033-034-041-042-049-050-058-059-041500-
EAST CENTRAL INDIANA

CITY           SKY/WX    TMP DP  RH WIND       PRES   REMARKS
MUNCIE         SUNNY     76  68  76 W6        30.04R

$$

INZ060-061-067>069-081>083-085>088-041500-
SOUTHWEST INDIANA

CITY           SKY/WX    TMP DP  RH WIND       PRES   REMARKS
EVANSVILLE     SUNNY     80  71  74 CALM      30.04S
HUNTINGBURG *+ SUNNY     79  70  73 CALM      30.05S
WASHINGTON +   SUNNY     80  68  65 CALM      30.04S

$$

INZ062-063-066-070>080-084-089>092-041500-
SOUTH CENTRAL AND SOUTHEAST INDIANA

CITY           SKY/WX    TMP DP  RH WIND       PRES   REMARKS
BLOOMINGTON    SUNNY     80  70  71 CALM      30.06R
MADISON *+     SUNNY     79  70  73 SW3       30.07F
NORTH VERNON + SUNNY     79  73  83 CALM      30.06S
SEYMOUR +      SUNNY     82  70  65 CALM      30.05S

$$



USA.gov is the U.S. government's official web portal to all federal, state and local government web resources and services.